Regional Weather Roundup
Issued by NWS

Home | Current Version | Previous Version | Graphics & Text | Print | Product List | Glossary On
Versions: 1 2 3 4 5 6 7 8 9 10 11 12 13 14 15 16 17 18 19 20 21 22 23 24 25 26 27 28 29 30 31 32 33 34 35 36 37 38 39 40 41 42 43 44 45 46 47 48 49 50
000
ASUS45 KBOI 061210
RWRID
WEATHER ROUNDUP FOR IDAHO
NATIONAL WEATHER SERVICE BOISE ID
500 AM MST FRI MAR 06 2015

NOTE: "FAIR" INDICATES FEW OR NO CLOUDS BELOW 12000 FEET
WITH NO SIGNIFICANT WEATHER AND/OR OBSTRUCTIONS TO VISIBILITY

IDZ012-014-061300-
SOUTHWEST IDAHO


CITY           SKY/WX    TMP DP  RH WIND       PRES   REMARKS
BOISE          CLEAR     32  19  58 SE3       30.39S
CALDWELL       CLEAR     25  16  68 CALM      30.43R
MOUNTAIN HOME  CLEAR     24  16  70 N2        30.39R
$$

IDZ016-017-061300-
SOUTHCENTRAL IDAHO


CITY           SKY/WX    TMP DP  RH WIND       PRES   REMARKS
BURLEY         CLEAR     23  15  71 CALM      30.37R
JEROME         CLEAR     32  16  51 SE3       30.38R
TWIN FALLS     CLEAR     38  16  40 S10       30.37R WCI  31
$$

IDZ019>023-061300-
SOUTHEAST IDAHO


CITY           SKY/WX    TMP DP  RH WIND       PRES   REMARKS
IDAHO FALLS    PTCLDY    22  17  81 NW3       30.39R
POCATELLO      CLEAR     26  19  74 NW6       30.39R WCI  19
REXBURG        CLEAR     20  16  84 NE3       30.39R
$$

IDZ006-010-011-018-031-032-061300-
CENTRAL IDAHO MOUNTAINS


CITY           SKY/WX    TMP DP  RH WIND       PRES   REMARKS
MCCALL         CLEAR     21  15  78 N3        30.39R
HAILEY         CLEAR     28  16  59 NW8       30.38S WCI  20
STANLEY          N/A     12   5  73 CALM      30.43S
SALMON         CLEAR     19  10  68 CALM      30.41R
CHALLIS        CLEAR     24  12  60 CALM      30.40R
$$

IDZ002-004-006-007-026-061300-
NORTHERN IDAHO


CITY           SKY/WX    TMP DP  RH WIND       PRES   REMARKS
LEWISTON       CLEAR     34  25  69 E3        30.40S
LOWELL           N/A     27  24  89 CALM      30.50R
COEUR D`ALENE  PTCLDY    32  25  74 S10       30.34F WCI  24
MULLAN PASS    PTCLDY    28  15  58 W3        30.29S
$$


USA.gov is the U.S. government's official web portal to all federal, state and local government web resources and services.